Buchanan, MI

8:42 PM EDT on April 27, 2015 (GMT -0400)
MesoWest | | Change Station
CLOSE
Current Station
Personal Weather Station
Location: Berrien Springs, MI
Elevation: 748 ft
Nearby Weather Stations
Active Advisory: Frost Advisory

Elev 748 ft 41.94 °N, 86.38 °W | Updated 42 minutes ago

Clear
Clear
48 °F
Feels Like 46 °F
N
5
Wind Variable Wind from NNW
Gusts 0.0 mph

Today
High -- | Low -- °F
--% Chance of Precip.
Yesterday
High -- | Low -- °F
Precip. -- in
6:47 AM 8:39 PM
Waxing Gibbous, 69% visible
Pressure 30.11 in
Visibility 10.0 miles
Clouds Clear
Windchill 46 °F
Dew Point 34 °F
Humidity 57%
Rainfall in
Snow Depth Not available.
UV 0 out of 12
Pollen 10.30 out of 12
Air Quality Not available.
Flu Activity Regional
METAR KSBN 272354Z 01010KT 10SM CLR 09/01 A3009 RMK AO2 SLP194 T00940006 10128 20094 55000

More Conditions Fewer Conditions

Pressure 30.11 in
Visibility 10.0 miles
Clouds Clear
Windchill 46 °F
Dew Point 34 °F
Humidity 57%
Rainfall in
Snow Depth Not available.
UV 0 out of 12
Pollen 10.30 out of 12
Air Quality Not available.
Flu Activity Regional
METAR KSBN 272354Z 01010KT 10SM CLR 09/01 A3009 RMK AO2 SLP194 T00940006 10128 20094 55000

More Conditions Fewer Conditions

10-Day Weather Forecast

Almanac

Astronomy

Apr. 27, 2015 Rise Set
Actual Time
Civil Twilight
Nautical Twilight
Astronomical Twilight
Moon
Length of Visible Light
Length of Day
Tomorrow will be .
, % of the Moon is Illuminated

Today's Extremes

State Highs State Lows

Community

WunderPhotos

Upload Photos

1,817,497 photos uploaded!

WunderBlogs® & News

Nearby

Air Quality

  Air Quality AQ Index Pollutant
Not available.

Snow Depth

Station Depth Elevation

Earthquake Activity

City Distance Mag. Time & Date
Minimum magnitude displayed is 2.5.

Coastal Water Temperatures

Place Temperature

Stations

Nearby Weather Stations

Station Location Temp. Windchill Dew Point Humidity Wind Precip. Elev Updated Type
                   
Frost Advisory
Statement as of 2:50 PM CDT on April 27, 2015

... Frost advisory in effect from 2 am EDT /1 am CDT/ to 9 am EDT
/8 am CDT/ Tuesday...

The National Weather Service in northern Indiana has issued a
frost advisory... which is in effect from 2 am EDT /1 am CDT/ to
9 am EDT /8 am CDT/ Tuesday.

Hazardous weather...

* temperatures will drop into the low to mid 30s tonight.

* Frost formation is likely once skies clear and winds diminish.

Impacts...

* sensitive vegetation will be killed if not protected.

Precautionary/preparedness actions...

A frost advisory means that frost is possible. Sensitive outdoor
plants may be killed if left uncovered.